WANGEN Weather Reports


time (UTC)temp
C
wind
direction
speed
KPH
gust
KPH
rain 1hr
cm
rain 24hr
cm
rain mn
cm
humidity
%
barometer
mb
20260507003209 7 209 0.0 0.0 0.00 0.00 0.00 94 1010.3
20260507000209 7 209 0.0 0.0 0.00 0.00 0.00 93 1010.4
20260506233209 7 209 0.0 0.0 0.00 0.00 0.00 93 1010.4
20260506230209 8 209 0.0 0.0 0.00 0.00 0.00 93 1010.3
20260506223209 8 209 0.0 0.0 0.00 0.00 0.00 92 1010.2
20260506213209 8 209 0.0 0.0 0.00 0.00 0.05 92 1010.1
20260506210210 8 221 0.0 0.0 0.00 0.00 0.05 92 1009.9
20260506203210 9 221 0.0 0.0 0.00 0.00 0.05 91 1009.6
20260506200210 9 227 3.2 0.0 0.00 0.00 0.05 91 1009.6
20260506193215 10 214 6.4 0.0 0.00 0.00 0.05 91 1009.2
20260506190211 10 219 6.4 0.0 0.00 0.00 0.05 91 1008.7
20260506183209 10 261 12.9 0.0 0.00 0.00 0.05 91 1008.2
20260506180216 10 252 11.3 0.0 0.00 0.00 0.05 92 1008.2
20260506173210 10 218 6.4 0.0 0.00 0.00 0.05 92 1008.0
20260506170215 10 220 9.7 0.0 0.00 0.00 0.05 92 1007.6
20260506163210 10 230 4.8 0.0 0.00 0.00 0.05 92 1007.2
20260506160210 10 241 16.1 0.0 0.00 0.00 0.03 92 1007.6
20260506153210 10 269 19.3 0.0 0.00 0.00 0.00 91 1007.2
20260506150210 10 288 24.1 0.0 0.00 0.00 0.00 90 1007.2
20260506143210 11 265 40.2 0.0 0.00 0.00 0.00 82 1006.6
20260506140210 16 301 19.3 0.0 0.00 0.00 0.00 75 1004.7
20260506133211 16 188 12.9 0.0 0.00 0.00 0.00 81 1004.4
20260506130211 14 80 3.2 0.0 0.00 0.00 0.03 87 1004.1
20260506123210 15 193 9.7 0.0 0.00 0.00 0.00 81 1004.7
20260506120210 16 213 12.9 0.0 0.00 0.00 0.00 75 1004.0
20260506113217 16 218 8.0 0.0 0.00 0.00 0.00 70 1004.0
20260506110210 16 282 8.0 0.0 0.00 0.00 0.00 67 1004.3
20260506100213 16 311 12.9 0.0 0.00 0.00 0.00 72 1004.5
20260506093211 14 43 9.7 0.0 0.00 0.00 0.00 77 1004.7
20260506090211 14 279 0.0 0.0 0.00 0.00 0.00 80 1005.0
20260506083211 13 49 0.0 0.0 0.00 0.00 0.00 88 1005.1
20260506080212 12 50 0.0 0.0 0.00 0.00 0.00 93 1005.0
20260506073211 11 32 0.0 0.0 0.00 0.00 0.00 93 1005.1
20260506070212 11 355 6.4 0.0 0.00 0.00 0.00 94 1004.9
20260506060210 10 168 0.0 0.0 0.00 0.00 0.00 95 1005.4
20260506050211 8 41 0.0 0.0 0.00 0.00 0.00 95 1005.7
20260506043211 8 41 0.0 0.0 0.00 0.00 0.00 95 1005.9
20260506040211 8 41 0.0 0.0 0.00 0.00 0.00 95 1006.2
20260506033211 8 41 0.0 0.0 0.00 0.00 0.00 95 1006.5
20260506030212 8 14 0.0 0.0 0.00 0.00 0.00 95 1006.7
20260506023211 9 14 0.0 0.0 0.00 0.00 0.00 95 1007.0
20260506020212 9 24 0.0 0.0 0.00 0.00 0.00 95 1007.3
20260506013211 9 41 0.0 0.0 0.00 0.00 0.00 95 1007.4
20260506010213 9 50 4.8 0.0 0.00 0.00 0.00 95 1007.5